Tracking 28790 objects as of 19-Apr-2024
HD Live streaming from Space Station
objects crossing your sky now

SL-8 R/B

Track SL-8 R/B now!
10-day predictions


NORAD ID: 16864
Int'l Code: 1986-052B
Perigee: 737.8 km
Apogee: 784.8 km
Inclination: 74.0 °
Period: 99.9 minutes
Semi major axis: 7132 km
RCS: 4.9557 m2 (large)
Launch date: July 16, 1986
Source: Commonwealth of Independent States (former USSR) (CIS)
Launch site: PLESETSK MISSILE AND SPACE COMPLEX (PKMTR)

Note: This is a ROCKET BODY
Your satellite tracking list
Your tracking list is empty




NASA's NSSDC Master Catalog

Two Line Element Set (TLE):
1 16864U 86052B   24109.58799110  .00000792  00000-0  25139-3 0  9993
2 16864  74.0279 152.1650 0032885 355.1166   4.9663 14.41314600982314
Source of the keplerian elements: AFSPC